# Tabular Observed and Forecast Hydrograph Information
#
# Location: Santa Margarita River - Temecula (SMHC1)
#
# File Generation Time: 09/04/2026 at 07:44 AM PDT
# Data Interval: 1 Hour
#
# Most Recent Date & Time of Maximum Observed: 09/03/2026 at 03:00 PM PDT
# Maximum Observed Stage: 1.72 Feet
# Maximum Observed Flow: 6 cfs
#
# Earliest Date & Time of Maximum Forecast: 09/06/2026 at 02:00 PM PDT
# Maximum Forecast Stage: 1.92 Feet
# Maximum Forecast Flow: 13 cfs
#
# OBSERVED
#
# Date & Time (Local) Stage (Feet) Flow (cfs) Trend Observed Status
# ---------------------------------------------------------------------------------
08/30/2026 07 AM PDT 1.63 4 Not Applicable
08/30/2026 08 AM PDT 1.63 4 0 Not Applicable
08/30/2026 09 AM PDT 1.63 4 0 Not Applicable
08/30/2026 10 AM PDT 1.63 4 0 Not Applicable
08/30/2026 11 AM PDT 1.64 4 + Not Applicable
08/30/2026 12 PM PDT 1.65 4 + Not Applicable
08/30/2026 01 PM PDT 1.63 4 - Not Applicable
08/30/2026 02 PM PDT 1.63 4 0 Not Applicable
08/30/2026 03 PM PDT 1.63 4 0 Not Applicable
08/30/2026 04 PM PDT 1.62 3 - Not Applicable
08/30/2026 05 PM PDT 1.62 3 0 Not Applicable
08/30/2026 06 PM PDT 1.62 3 0 Not Applicable
08/30/2026 07 PM PDT 1.62 3 0 Not Applicable
08/30/2026 08 PM PDT 1.62 3 0 Not Applicable
08/30/2026 09 PM PDT 1.63 4 + Not Applicable
08/30/2026 10 PM PDT 1.62 3 - Not Applicable
08/30/2026 11 PM PDT 1.62 3 0 Not Applicable
08/31/2026 12 AM PDT 1.62 3 0 Not Applicable
08/31/2026 01 AM PDT 1.63 4 + Not Applicable
08/31/2026 02 AM PDT 1.62 3 - Not Applicable
08/31/2026 03 AM PDT 1.62 3 0 Not Applicable
08/31/2026 04 AM PDT 1.62 3 0 Not Applicable
08/31/2026 05 AM PDT 1.63 4 + Not Applicable
08/31/2026 06 AM PDT 1.63 4 0 Not Applicable
08/31/2026 07 AM PDT 1.63 4 0 Not Applicable
08/31/2026 08 AM PDT 1.65 4 + Not Applicable
08/31/2026 09 AM PDT 1.63 4 - Not Applicable
08/31/2026 10 AM PDT 1.63 4 0 Not Applicable
08/31/2026 11 AM PDT 1.63 4 0 Not Applicable
08/31/2026 12 PM PDT 1.64 4 + Not Applicable
08/31/2026 01 PM PDT 1.64 4 0 Not Applicable
08/31/2026 02 PM PDT 1.64 4 0 Not Applicable
08/31/2026 03 PM PDT 1.63 4 - Not Applicable
08/31/2026 04 PM PDT 1.63 4 0 Not Applicable
08/31/2026 05 PM PDT 1.63 4 0 Not Applicable
08/31/2026 06 PM PDT 1.63 4 0 Not Applicable
08/31/2026 07 PM PDT 1.62 3 - Not Applicable
08/31/2026 08 PM PDT 1.62 3 0 Not Applicable
08/31/2026 09 PM PDT 1.62 3 0 Not Applicable
08/31/2026 10 PM PDT 1.62 3 0 Not Applicable
08/31/2026 11 PM PDT 1.62 3 0 Not Applicable
09/01/2026 12 AM PDT 1.63 4 + Not Applicable
09/01/2026 01 AM PDT 1.64 4 + Not Applicable
09/01/2026 02 AM PDT 1.64 4 0 Not Applicable
09/01/2026 03 AM PDT 1.63 4 - Not Applicable
09/01/2026 04 AM PDT 1.63 4 0 Not Applicable
09/01/2026 05 AM PDT 1.64 4 + Not Applicable
09/01/2026 06 AM PDT 1.62 3 - Not Applicable
09/01/2026 07 AM PDT 1.62 3 0 Not Applicable
09/01/2026 08 AM PDT 1.61 3 - Not Applicable
09/01/2026 09 AM PDT 1.63 4 + Not Applicable
09/01/2026 10 AM PDT 1.62 3 - Not Applicable
09/01/2026 11 AM PDT 1.62 3 0 Not Applicable
09/01/2026 12 PM PDT 1.62 3 0 Not Applicable
09/01/2026 01 PM PDT 1.62 3 0 Not Applicable
09/01/2026 02 PM PDT 1.62 3 0 Not Applicable
09/01/2026 03 PM PDT 1.62 3 0 Not Applicable
09/01/2026 04 PM PDT 1.62 3 0 Not Applicable
09/01/2026 05 PM PDT 1.61 3 - Not Applicable
09/01/2026 06 PM PDT 1.63 4 + Not Applicable
09/01/2026 07 PM PDT 1.61 3 - Not Applicable
09/01/2026 08 PM PDT 1.62 3 + Not Applicable
09/01/2026 09 PM PDT 1.62 3 0 Not Applicable
09/01/2026 10 PM PDT 1.64 4 + Not Applicable
09/01/2026 11 PM PDT 1.63 4 - Not Applicable
09/02/2026 12 AM PDT 1.64 4 + Not Applicable
09/02/2026 01 AM PDT 1.64 4 0 Not Applicable
09/02/2026 02 AM PDT 1.65 4 + Not Applicable
09/02/2026 03 AM PDT 1.67 4 + Not Applicable
09/02/2026 04 AM PDT 1.66 4 - Not Applicable
09/02/2026 05 AM PDT 1.67 4 + Not Applicable
09/02/2026 06 AM PDT 1.67 4 0 Not Applicable
09/02/2026 07 AM PDT 1.67 4 0 Not Applicable
09/02/2026 08 AM PDT 1.67 4 0 Not Applicable
09/02/2026 09 AM PDT 1.67 4 0 Not Applicable
09/02/2026 10 AM PDT 1.67 4 0 Not Applicable
09/02/2026 11 AM PDT 1.67 4 0 Not Applicable
09/02/2026 12 PM PDT 1.66 4 - Not Applicable
09/02/2026 01 PM PDT 1.66 4 0 Not Applicable
09/02/2026 02 PM PDT 1.65 4 - Not Applicable
09/02/2026 03 PM PDT 1.66 4 + Not Applicable
09/02/2026 04 PM PDT 1.64 4 - Not Applicable
09/02/2026 05 PM PDT 1.64 4 0 Not Applicable
09/02/2026 06 PM PDT 1.65 4 + Not Applicable
09/02/2026 07 PM PDT 1.63 4 - Not Applicable
09/02/2026 08 PM PDT 1.63 4 0 Not Applicable
09/02/2026 09 PM PDT 1.64 4 + Not Applicable
09/02/2026 10 PM PDT 1.65 4 + Not Applicable
09/02/2026 11 PM PDT 1.65 4 0 Not Applicable
09/03/2026 12 AM PDT 1.66 4 + Not Applicable
09/03/2026 01 AM PDT 1.68 5 + Not Applicable
09/03/2026 02 AM PDT 1.68 5 0 Not Applicable
09/03/2026 03 AM PDT 1.69 5 + Not Applicable
09/03/2026 04 AM PDT 1.70 5 + Not Applicable
09/03/2026 05 AM PDT 1.70 5 0 Not Applicable
09/03/2026 06 AM PDT 1.71 5 + Not Applicable
09/03/2026 07 AM PDT 1.71 5 0 Not Applicable
09/03/2026 08 AM PDT 1.71 5 0 Not Applicable
09/03/2026 09 AM PDT 1.71 5 0 Not Applicable
09/03/2026 10 AM PDT 1.71 5 0 Not Applicable
09/03/2026 11 AM PDT 1.72 6 + Not Applicable
09/03/2026 12 PM PDT 1.71 5 - Not Applicable
09/03/2026 01 PM PDT 1.70 5 - Not Applicable
09/03/2026 02 PM PDT 1.70 5 0 Not Applicable
09/03/2026 03 PM PDT 1.72 6 + Not Applicable
09/03/2026 04 PM PDT 1.71 5 - Not Applicable
09/03/2026 05 PM PDT 1.70 5 - Not Applicable
09/03/2026 06 PM PDT 1.70 5 0 Not Applicable
09/03/2026 07 PM PDT 1.70 5 0 Not Applicable
09/03/2026 08 PM PDT 1.70 5 0 Not Applicable
09/03/2026 09 PM PDT 1.70 5 0 Not Applicable
09/03/2026 10 PM PDT 1.70 5 0 Not Applicable
09/03/2026 11 PM PDT 1.70 5 0 Not Applicable
09/04/2026 12 AM PDT 1.71 5 + Not Applicable
09/04/2026 01 AM PDT 1.71 5 0 Not Applicable
09/04/2026 02 AM PDT 1.71 5 0 Not Applicable
09/04/2026 03 AM PDT 1.71 5 0 Not Applicable
09/04/2026 04 AM PDT 1.71 5 0 Not Applicable
09/04/2026 05 AM PDT 1.71 5 0 Not Applicable
09/04/2026 06 AM PDT 1.71 5 0 Not Applicable
09/04/2026 07 AM PDT 1.71 5 0 Not Applicable
#
# FORECAST
#
# Date & Time (Local) Stage (Feet) Flow (cfs) Trend Forecast Status
# ---------------------------------------------------------------------------------
09/04/2026 08 AM PDT 1.71 5 Not Applicable
09/04/2026 09 AM PDT 1.71 5 0 Not Applicable
09/04/2026 10 AM PDT 1.71 5 0 Not Applicable
09/04/2026 11 AM PDT 1.71 5 0 Not Applicable
09/04/2026 12 PM PDT 1.71 5 0 Not Applicable
09/04/2026 01 PM PDT 1.71 5 0 Not Applicable
09/04/2026 02 PM PDT 1.71 5 0 Not Applicable
09/04/2026 03 PM PDT 1.71 5 0 Not Applicable
09/04/2026 04 PM PDT 1.71 5 0 Not Applicable
09/04/2026 05 PM PDT 1.71 5 0 Not Applicable
09/04/2026 06 PM PDT 1.71 5 0 Not Applicable
09/04/2026 07 PM PDT 1.71 5 0 Not Applicable
09/04/2026 08 PM PDT 1.71 5 0 Not Applicable
09/04/2026 09 PM PDT 1.71 5 0 Not Applicable
09/04/2026 10 PM PDT 1.71 5 0 Not Applicable
09/04/2026 11 PM PDT 1.71 5 0 Not Applicable
09/05/2026 12 AM PDT 1.71 5 0 Not Applicable
09/05/2026 01 AM PDT 1.71 5 0 Not Applicable
09/05/2026 02 AM PDT 1.71 5 0 Not Applicable
09/05/2026 03 AM PDT 1.71 5 0 Not Applicable
09/05/2026 04 AM PDT 1.71 5 0 Not Applicable
09/05/2026 05 AM PDT 1.71 5 0 Not Applicable
09/05/2026 06 AM PDT 1.71 5 0 Not Applicable
09/05/2026 07 AM PDT 1.71 5 0 Not Applicable
09/05/2026 08 AM PDT 1.71 5 0 Not Applicable
09/05/2026 09 AM PDT 1.71 5 0 Not Applicable
09/05/2026 10 AM PDT 1.71 5 0 Not Applicable
09/05/2026 11 AM PDT 1.71 5 0 Not Applicable
09/05/2026 12 PM PDT 1.71 5 0 Not Applicable
09/05/2026 01 PM PDT 1.71 5 0 Not Applicable
09/05/2026 02 PM PDT 1.71 5 0 Not Applicable
09/05/2026 03 PM PDT 1.71 5 0 Not Applicable
09/05/2026 04 PM PDT 1.71 5 0 Not Applicable
09/05/2026 05 PM PDT 1.71 5 0 Not Applicable
09/05/2026 06 PM PDT 1.72 6 + Not Applicable
09/05/2026 07 PM PDT 1.74 6 + Not Applicable
09/05/2026 08 PM PDT 1.77 7 + Not Applicable
09/05/2026 09 PM PDT 1.78 7 + Not Applicable
09/05/2026 10 PM PDT 1.79 8 + Not Applicable
09/05/2026 11 PM PDT 1.78 7 - Not Applicable
09/06/2026 12 AM PDT 1.77 7 - Not Applicable
09/06/2026 01 AM PDT 1.76 7 - Not Applicable
09/06/2026 02 AM PDT 1.75 7 - Not Applicable
09/06/2026 03 AM PDT 1.75 7 0 Not Applicable
09/06/2026 04 AM PDT 1.75 7 0 Not Applicable
09/06/2026 05 AM PDT 1.75 7 0 Not Applicable
09/06/2026 06 AM PDT 1.76 7 + Not Applicable
09/06/2026 07 AM PDT 1.78 7 + Not Applicable
09/06/2026 08 AM PDT 1.80 8 + Not Applicable
09/06/2026 09 AM PDT 1.82 9 + Not Applicable
09/06/2026 10 AM PDT 1.85 10 + Not Applicable
09/06/2026 11 AM PDT 1.87 11 + Not Applicable
09/06/2026 12 PM PDT 1.90 12 + Not Applicable
09/06/2026 01 PM PDT 1.91 12 + Not Applicable
09/06/2026 02 PM PDT 1.92 13 + Not Applicable
09/06/2026 03 PM PDT 1.92 13 0 Not Applicable
09/06/2026 04 PM PDT 1.92 13 0 Not Applicable
09/06/2026 05 PM PDT 1.92 13 0 Not Applicable
09/06/2026 06 PM PDT 1.91 12 - Not Applicable
09/06/2026 07 PM PDT 1.91 12 0 Not Applicable
09/06/2026 08 PM PDT 1.90 12 - Not Applicable
09/06/2026 09 PM PDT 1.90 12 0 Not Applicable
09/06/2026 10 PM PDT 1.89 12 - Not Applicable
09/06/2026 11 PM PDT 1.88 11 - Not Applicable
09/07/2026 12 AM PDT 1.86 10 - Not Applicable
09/07/2026 01 AM PDT 1.85 10 - Not Applicable
09/07/2026 02 AM PDT 1.84 10 - Not Applicable
09/07/2026 03 AM PDT 1.83 9 - Not Applicable
09/07/2026 04 AM PDT 1.82 9 - Not Applicable
09/07/2026 05 AM PDT 1.80 8 - Not Applicable
09/07/2026 06 AM PDT 1.79 8 - Not Applicable
09/07/2026 07 AM PDT 1.77 7 - Not Applicable
09/07/2026 08 AM PDT 1.76 7 - Not Applicable
09/07/2026 09 AM PDT 1.75 7 - Not Applicable
09/07/2026 10 AM PDT 1.74 6 - Not Applicable
09/07/2026 11 AM PDT 1.73 6 - Not Applicable
09/07/2026 12 PM PDT 1.73 6 0 Not Applicable
09/07/2026 01 PM PDT 1.72 6 - Not Applicable
09/07/2026 02 PM PDT 1.72 6 0 Not Applicable
09/07/2026 03 PM PDT 1.72 6 0 Not Applicable
09/07/2026 04 PM PDT 1.71 5 - Not Applicable
09/07/2026 05 PM PDT 1.71 5 0 Not Applicable
09/07/2026 06 PM PDT 1.71 5 0 Not Applicable
09/07/2026 07 PM PDT 1.71 5 0 Not Applicable
09/07/2026 08 PM PDT 1.71 5 0 Not Applicable
09/07/2026 09 PM PDT 1.71 5 0 Not Applicable
09/07/2026 10 PM PDT 1.71 5 0 Not Applicable
09/07/2026 11 PM PDT 1.71 5 0 Not Applicable
09/08/2026 12 AM PDT 1.71 5 0 Not Applicable
09/08/2026 01 AM PDT 1.71 5 0 Not Applicable
09/08/2026 02 AM PDT 1.71 5 0 Not Applicable
09/08/2026 03 AM PDT 1.71 5 0 Not Applicable
09/08/2026 04 AM PDT 1.71 5 0 Not Applicable
09/08/2026 05 AM PDT 1.71 5 0 Not Applicable
09/08/2026 06 AM PDT 1.71 5 0 Not Applicable
09/08/2026 07 AM PDT 1.71 5 0 Not Applicable
09/08/2026 08 AM PDT 1.71 5 0 Not Applicable
09/08/2026 09 AM PDT 1.71 5 0 Not Applicable
09/08/2026 10 AM PDT 1.71 5 0 Not Applicable
09/08/2026 11 AM PDT 1.71 5 0 Not Applicable
09/08/2026 12 PM PDT 1.71 5 0 Not Applicable
09/08/2026 01 PM PDT 1.71 5 0 Not Applicable
09/08/2026 02 PM PDT 1.71 5 0 Not Applicable
09/08/2026 03 PM PDT 1.71 5 0 Not Applicable
09/08/2026 04 PM PDT 1.71 5 0 Not Applicable
09/08/2026 05 PM PDT 1.71 5 0 Not Applicable
09/08/2026 06 PM PDT 1.71 5 0 Not Applicable
09/08/2026 07 PM PDT 1.71 5 0 Not Applicable
09/08/2026 08 PM PDT 1.71 5 0 Not Applicable
09/08/2026 09 PM PDT 1.71 5 0 Not Applicable
09/08/2026 10 PM PDT 1.71 5 0 Not Applicable
09/08/2026 11 PM PDT 1.71 5 0 Not Applicable
09/09/2026 12 AM PDT 1.71 5 0 Not Applicable
09/09/2026 01 AM PDT 1.71 5 0 Not Applicable
09/09/2026 02 AM PDT 1.71 5 0 Not Applicable
09/09/2026 03 AM PDT 1.71 5 0 Not Applicable
09/09/2026 04 AM PDT 1.71 5 0 Not Applicable
09/09/2026 05 AM PDT 1.71 5 0 Not Applicable
#
# NOTE 1: Stages are rounded to the nearest hundredth (.01) of a foot.
# NOTE 2: Flows are rounded to the nearest (1) cfs.
# NOTE 3: Trends are determined using hourly change in unrounded stage and flow.
# NOTE 4: Maximum Values are determined using unrounded stage and flow.
|